Regional Weather Roundup
Issued by NWS Jackson, KY

Home | Current Version | Previous Version | Text Only | Print | Product List | Glossary Off
Versions: 1 2 3 4 5 6 7 8 9 10 11 12 13 14 15 16 17 18 19 20 21 22 23 24 25 26 27 28 29 30 31 32 33 34 35 36 37 38 39 40 41 42 43 44 45 46 47 48 49 50

000
ASUS43 KJKL 231211
RWRJKL

EAST KENTUCKY HOURLY WEATHER ROUNDUP
NATIONAL WEATHER SERVICE JACKSON KY
800 AM EDT WED JUL 23 2014

NOTE: "FAIR" INDICATES FEW OR NO CLOUDS BELOW 12,000 FEET WITH
NO SIGNIFICANT WEATHER AND/OR OBSTRUCTIONS TO VISIBILITY.

* THESE REPORTS ARE NOT UNDER NWS QUALITY CONTROL AND MAY NOT
  REPORT WEATHER SUCH AS PRECIPITATION AND FOG.

KYZ079-080-083-085-087-088-110-112-115-119-120-231300
...EASTERN KENTUCKY...

CITY           SKY/WX    TMP DP  RH WIND       PRES   REMARKS
JACKSON        MOSUNNY   73  70  90 CALM      30.11R
6HR MIN TEMP:  71; 6HR MAX TEMP:  74;

LONDON         SUNNY     74  70  87 CALM      30.12R
6HR MIN TEMP:  71; 6HR MAX TEMP:  74; 6HR PCP: TRACE;

SOMERSET*      SUNNY     72  72 100 CALM      30.11S FOG
MONTICELLO*    MOSUNNY   73  72  97 CALM      30.12R FOG
6HR MIN TEMP:  69; 6HR MAX TEMP:  74;

WILLIAMSBURG*  PTSUNNY   72  72 100 CALM      30.12S
MIDDLESBORO*   FOG       68  68 100 CALM      30.14R VSB 1/2
6HR MIN TEMP:  67; 6HR MAX TEMP:  69;

HARLAN APT*    CLOUDY    68  66  94 MISG      30.15S VSB 1/2
BLACK MTN*       N/A     66  66 100 NW1         N/A
PIKEVILLE APT* PTSUNNY   70  68  94 CALM      30.12R
BIG SANDY*     PTSUNNY   73  71  91 SW3       30.10S
6HR MIN TEMP:  71; 6HR MAX TEMP:  75;

MOREHEAD APT*    N/A     75  72  88 CALM      30.10S
$$

KYZ035-036-041-042-044-050-067-078-099-231300
...CENTRAL KENTUCKY...

CITY           SKY/WX    TMP DP  RH WIND       PRES   REMARKS
MT STERLING*   MOSUNNY   73  72  94 SW3       30.09S
FLEMING/MASON* PTSUNNY   72  70  94 CALM      30.09R
DANVILLE*      SUNNY     72  70  94 S3        30.09S
RICHMOND*      SUNNY     75  70  83 S3        30.08S
LEXINGTON      MOSUNNY   74  70  87 SE3       30.08S
6HR MIN TEMP:  72; 6HR MAX TEMP:  76;

FRANKFORT      MOSUNNY   74  71  91 CALM      30.05F
6HR MIN TEMP:  70; 6HR MAX TEMP:  75;

$$

KYZ091>093-OHZ055-061-077-WVZ005-015-034-035-042-231300
...SOUTHERN OHIO/WEST VIRGINIA...

CITY           SKY/WX    TMP DP  RH WIND       PRES   REMARKS
COVINGTON      LGT RAIN  74  67  78 E15G23    30.09R
COLUMBUS       CLOUDY    76  66  71 W7        30.05R
DAYTON         LGT RAIN  69  66  90 S12       30.06S
WILMINGTON     LGT RAIN  71  65  81 N8        30.10R
HUNTINGTON     MOSUNNY   73  71  93 CALM      30.06R
CHARLESTON     LGT RAIN  73  71  93 W10       30.07R
PINEVILLE*     PTSUNNY   68  68 100 MISG      30.19R
BECKLEY        CLOUDY    71  65  81 SW6       30.18R
BLUEFIELD      MOSUNNY   70  64  81 W7        30.20R
$$

VAZ002-007-008-TNZ017-027-036-066-071-231300
...SOUTHWEST VIRGINIA/EAST TENNESSEE...

CITY           SKY/WX    TMP DP  RH WIND       PRES   REMARKS
WISE*          MOSUNNY   70  68  94 CALM      30.21R
JONESVILLE*    FOG       66  66 100 CALM      30.16S VSB 1/2
ABINGDON*      PTSUNNY   69  67  95 CALM      30.18R
BRISTOL        CLOUDY    70  66  87 CALM      30.16R
KNOXVILLE      PTSUNNY   73  70  90 SW7       30.11R
OAK RIDGE      LGT RAIN  76  72  87 VRB3      30.13R
CROSSVILLE     PTSUNNY   69  66  90 CALM      30.16R
NASHVILLE      MOSUNNY   74  73  97 S3        30.08R
$$

...KEY TO REMARKS...
VSB - VISIBILITY IN MILES
WCI - WIND CHILL INDEX
HX  - HEAT INDEX

$$


USA.gov is the U.S. government's official web portal to all federal, state and local government web resources and services.